| time (UTC) | temp C | wind direction | speed KPH | gust KPH | rain 1hr cm | rain 24hr cm | rain mn cm | humidity % | barometer mb |
| 20260508235006 | 17 | 73 | 0.0 | 0.0 | 0.00 | 0.00 | 0.00 | 48 | 1012.3 |
| 20260508234006 | 17 | 73 | 0.0 | 0.0 | 0.00 | 0.00 | 0.00 | 46 | 1012.2 |
| 20260508233007 | 18 | 73 | 0.0 | 0.0 | 0.00 | 0.00 | 0.00 | 46 | 1012.2 |
| 20260508232006 | 18 | 73 | 0.0 | 0.0 | 0.00 | 0.00 | 0.00 | 44 | 1012.3 |
| 20260508231006 | 18 | 73 | 0.0 | 0.0 | 0.00 | 0.00 | 0.00 | 41 | 1012.3 |
| 20260508230006 | 18 | 73 | 0.0 | 0.0 | 0.00 | 0.00 | 0.00 | 38 | 1012.3 |
| 20260508225006 | 18 | 73 | 0.0 | 0.0 | 0.00 | 0.00 | 0.00 | 35 | 1012.4 |
| 20260508224006 | 19 | 73 | 0.0 | 8.0 | 0.00 | 0.00 | 0.00 | 33 | 1012.5 |
| 20260508223006 | 19 | 114 | 0.0 | 0.0 | 0.00 | 0.00 | 0.00 | 34 | 1012.6 |
| 20260508222006 | 20 | 114 | 0.0 | 0.0 | 0.00 | 0.00 | 0.00 | 34 | 1012.7 |
| 20260508221006 | 20 | 114 | 0.0 | 0.0 | 0.00 | 0.00 | 0.00 | 35 | 1012.6 |
| 20260508215006 | 20 | 114 | 0.0 | 0.0 | 0.00 | 0.00 | 0.00 | 30 | 1012.6 |
| 20260508214005 | 21 | 114 | 0.0 | 0.0 | 0.00 | 0.00 | 0.00 | 32 | 1012.6 |
| 20260508211006 | 21 | 114 | 0.0 | 0.0 | 0.00 | 0.00 | 0.00 | 32 | 1012.5 |
| 20260508210006 | 22 | 114 | 0.0 | 0.0 | 0.00 | 0.00 | 0.00 | 31 | 1012.6 |
| 20260508205006 | 22 | 114 | 0.0 | 0.0 | 0.00 | 0.00 | 0.00 | 28 | 1012.7 |
| 20260508204006 | 22 | 114 | 0.0 | 0.0 | 0.00 | 0.00 | 0.00 | 27 | 1012.6 |
| 20260508203006 | 22 | 114 | 0.0 | 0.0 | 0.00 | 0.00 | 0.00 | 31 | 1012.8 |
| 20260508202005 | 22 | 114 | 0.0 | 9.7 | 0.00 | 0.00 | 0.00 | 28 | 1012.8 |
| 20260508201005 | 22 | 90 | 0.0 | 3.2 | 0.00 | 0.00 | 0.00 | 28 | 1013.1 |
| 20260508200006 | 22 | 90 | 0.0 | 9.7 | 0.00 | 0.00 | 0.00 | 28 | 1013.1 |
| 20260508195006 | 22 | 95 | 1.6 | 4.8 | 0.00 | 0.00 | 0.00 | 27 | 1013.4 |
| 20260508193006 | 22 | 291 | 1.6 | 11.3 | 0.00 | 0.00 | 0.00 | 27 | 1014.2 |
| 20260508191006 | 22 | 27 | 0.0 | 0.0 | 0.00 | 0.00 | 0.00 | 29 | 1014.6 |
| 20260508190005 | 22 | 27 | 0.0 | 0.0 | 0.00 | 0.00 | 0.00 | 28 | 1014.6 |
| 20260508185005 | 22 | 27 | 0.0 | 3.2 | 0.00 | 0.00 | 0.00 | 29 | 1014.6 |
| 20260508184006 | 22 | 256 | 1.6 | 9.7 | 0.00 | 0.00 | 0.00 | 29 | 1014.8 |
| 20260508183005 | 22 | 103 | 0.0 | 0.0 | 0.00 | 0.00 | 0.00 | 28 | 1015.0 |
| 20260508182005 | 22 | 103 | 0.0 | 8.0 | 0.00 | 0.00 | 0.00 | 29 | 1015.1 |
| 20260508181005 | 22 | 167 | 0.0 | 0.0 | 0.00 | 0.00 | 0.00 | 27 | 1015.1 |
| 20260508180005 | 22 | 167 | 0.0 | 9.7 | 0.00 | 0.00 | 0.00 | 26 | 1015.3 |
| 20260508175005 | 22 | 133 | 0.0 | 9.7 | 0.00 | 0.00 | 0.00 | 29 | 1015.3 |
| 20260508174006 | 22 | 110 | 0.0 | 0.0 | 0.00 | 0.00 | 0.00 | 32 | 1015.4 |
| 20260508173006 | 21 | 110 | 0.0 | 8.0 | 0.00 | 0.00 | 0.00 | 34 | 1015.5 |
| 20260508172006 | 21 | 103 | 0.0 | 3.2 | 0.00 | 0.00 | 0.00 | 35 | 1015.7 |
| 20260508171005 | 21 | 103 | 0.0 | 0.0 | 0.00 | 0.00 | 0.00 | 36 | 1015.9 |
| 20260508170005 | 20 | 103 | 0.0 | 0.0 | 0.00 | 0.00 | 0.00 | 37 | 1016.1 |
| 20260508165006 | 20 | 103 | 0.0 | 0.0 | 0.00 | 0.00 | 0.00 | 35 | 1016.4 |
| 20260508164006 | 20 | 103 | 0.0 | 0.0 | 0.00 | 0.00 | 0.00 | 35 | 1016.8 |
| 20260508163006 | 20 | 103 | 0.0 | 0.0 | 0.00 | 0.00 | 0.00 | 39 | 1016.9 |
| 20260508162005 | 19 | 103 | 0.0 | 0.0 | 0.00 | 0.00 | 0.00 | 42 | 1016.9 |
| 20260508160005 | 18 | 124 | 0.0 | 0.0 | 0.00 | 0.00 | 0.00 | 44 | 1017.1 |
| 20260508155005 | 18 | 124 | 0.0 | 8.0 | 0.00 | 0.00 | 0.00 | 42 | 1017.2 |
| 20260508154005 | 17 | 152 | 0.0 | 0.0 | 0.00 | 0.00 | 0.00 | 49 | 1017.4 |
| 20260508153005 | 17 | 152 | 0.0 | 0.0 | 0.00 | 0.00 | 0.00 | 50 | 1017.5 |
| 20260508151004 | 15 | 152 | 0.0 | 0.0 | 0.00 | 0.00 | 0.00 | 52 | 1017.8 |
| 20260508145005 | 13 | 152 | 0.0 | 4.8 | 0.00 | 0.00 | 0.00 | 61 | 1017.8 |
| 20260508144005 | 13 | 277 | 0.0 | 0.0 | 0.00 | 0.00 | 0.00 | 73 | 1017.8 |
| 20260508143005 | 12 | 277 | 0.0 | 0.0 | 0.00 | 0.00 | 0.00 | 81 | 1017.8 |
| 20260508142005 | 11 | 277 | 0.0 | 0.0 | 0.00 | 0.03 | 0.00 | 86 | 1017.9 |
| 20260508141004 | 10 | 277 | 0.0 | 0.0 | 0.00 | 0.03 | 0.00 | 88 | 1017.9 |
| 20260508140005 | 10 | 277 | 0.0 | 0.0 | 0.00 | 0.03 | 0.00 | 92 | 1017.9 |
| 20260508135004 | 9 | 277 | 0.0 | 0.0 | 0.00 | 0.03 | 0.00 | 94 | 1017.9 |
| 20260508134005 | 9 | 277 | 0.0 | 0.0 | 0.00 | 0.03 | 0.00 | 95 | 1017.8 |
| 20260508133004 | 8 | 277 | 0.0 | 0.0 | 0.00 | 0.03 | 0.00 | 97 | 1018.0 |
| 20260508132004 | 8 | 277 | 0.0 | 0.0 | 0.00 | 0.03 | 0.00 | 98 | 1017.9 |
| 20260508131004 | 7 | 277 | 0.0 | 0.0 | 0.00 | 0.03 | 0.00 | 98 | 1017.7 |
| 20260508130005 | 7 | 277 | 0.0 | 0.0 | 0.00 | 0.03 | 0.00 | 98 | 1017.8 |
| 20260508124004 | 6 | 277 | 0.0 | 0.0 | 0.00 | 0.03 | 0.00 | 98 | 1017.8 |
| 20260508122005 | 6 | 277 | 0.0 | 0.0 | 0.00 | 0.03 | 0.00 | 98 | 1017.7 |
| 20260508115004 | 5 | 277 | 0.0 | 0.0 | 0.00 | 0.03 | 0.00 | 98 | 1017.3 |
| 20260508114004 | 5 | 277 | 0.0 | 0.0 | 0.00 | 0.03 | 0.00 | 98 | 1017.3 |
| 20260508113005 | 5 | 277 | 0.0 | 0.0 | 0.00 | 0.03 | 0.00 | 98 | 1017.2 |
| 20260508112004 | 5 | 277 | 0.0 | 0.0 | 0.00 | 0.03 | 0.00 | 98 | 1017.0 |
| 20260508111005 | 5 | 277 | 0.0 | 0.0 | 0.00 | 0.03 | 0.00 | 98 | 1016.9 |
| 20260508110005 | 5 | 277 | 0.0 | 0.0 | 0.00 | 0.03 | 0.00 | 97 | 1016.8 |
| 20260508105005 | 5 | 277 | 0.0 | 0.0 | 0.00 | 0.03 | 0.00 | 97 | 1016.4 |
| 20260508102005 | 5 | 277 | 0.0 | 0.0 | 0.00 | 0.03 | 0.00 | 98 | 1016.3 |
| 20260508101005 | 5 | 277 | 0.0 | 0.0 | 0.00 | 0.03 | 0.00 | 97 | 1016.2 |
| 20260508100005 | 5 | 277 | 0.0 | 0.0 | 0.00 | 0.03 | 0.00 | 97 | 1016.2 |
| 20260508094004 | 6 | 277 | 0.0 | 0.0 | 0.00 | 0.03 | 0.00 | 97 | 1016.1 |
| 20260508093004 | 6 | 277 | 0.0 | 0.0 | 0.00 | 0.03 | 0.00 | 97 | 1016.0 |
| 20260508092004 | 6 | 277 | 0.0 | 0.0 | 0.00 | 0.03 | 0.00 | 97 | 1015.9 |
| 20260508091004 | 6 | 277 | 0.0 | 0.0 | 0.00 | 0.05 | 0.00 | 96 | 1015.9 |
| 20260508090004 | 6 | 277 | 0.0 | 0.0 | 0.00 | 0.05 | 0.00 | 97 | 1015.8 |
| 20260508084004 | 6 | 277 | 0.0 | 0.0 | 0.00 | 0.05 | 0.00 | 96 | 1015.8 |
| 20260508082004 | 6 | 277 | 0.0 | 0.0 | 0.00 | 0.05 | 0.00 | 96 | 1015.7 |
| 20260508081004 | 6 | 277 | 0.0 | 0.0 | 0.00 | 0.05 | 0.00 | 96 | 1015.7 |
| 20260508080005 | 6 | 277 | 0.0 | 0.0 | 0.00 | 0.05 | 0.00 | 96 | 1015.8 |
| 20260508074004 | 7 | 277 | 0.0 | 0.0 | 0.00 | 0.05 | 0.00 | 95 | 1015.9 |
| 20260508073003 | 7 | 277 | 0.0 | 0.0 | 0.00 | 0.05 | 0.00 | 95 | 1015.8 |
| 20260508072005 | 7 | 277 | 0.0 | 0.0 | 0.00 | 0.05 | 0.00 | 95 | 1015.9 |
| 20260508071004 | 7 | 277 | 0.0 | 0.0 | 0.00 | 0.05 | 0.00 | 94 | 1015.8 |
| 20260508065004 | 7 | 277 | 0.0 | 0.0 | 0.00 | 0.05 | 0.00 | 94 | 1015.8 |
| 20260508064004 | 7 | 277 | 0.0 | 0.0 | 0.00 | 0.05 | 0.00 | 94 | 1015.8 |
| 20260508063004 | 7 | 277 | 0.0 | 0.0 | 0.00 | 0.05 | 0.00 | 94 | 1015.8 |
| 20260508062004 | 7 | 277 | 0.0 | 0.0 | 0.00 | 0.05 | 0.00 | 94 | 1015.9 |
| 20260508061004 | 7 | 277 | 0.0 | 0.0 | 0.00 | 0.05 | 0.00 | 93 | 1016.0 |
| 20260508060003 | 8 | 277 | 0.0 | 0.0 | 0.00 | 0.05 | 0.00 | 93 | 1016.1 |
| 20260508055003 | 8 | 277 | 0.0 | 0.0 | 0.00 | 0.05 | 0.00 | 93 | 1016.0 |
| 20260508053003 | 8 | 277 | 0.0 | 0.0 | 0.00 | 0.05 | 0.00 | 92 | 1016.0 |
| 20260508052003 | 8 | 277 | 0.0 | 0.0 | 0.00 | 0.05 | 0.00 | 92 | 1016.0 |
| 20260508051003 | 8 | 277 | 0.0 | 0.0 | 0.00 | 0.05 | 0.00 | 92 | 1016.0 |
| 20260508050004 | 8 | 277 | 0.0 | 0.0 | 0.00 | 0.05 | 0.00 | 92 | 1016.0 |
| 20260508045004 | 8 | 277 | 0.0 | 0.0 | 0.00 | 0.05 | 0.00 | 91 | 1015.9 |
| 20260508044007 | 9 | 277 | 0.0 | 0.0 | 0.00 | 0.05 | 0.00 | 91 | 1015.9 |
| 20260508043007 | 9 | 277 | 0.0 | 0.0 | 0.00 | 0.05 | 0.00 | 91 | 1015.7 |
| 20260508042007 | 9 | 277 | 0.0 | 0.0 | 0.00 | 0.05 | 0.00 | 90 | 1015.6 |
| 20260508041007 | 9 | 277 | 0.0 | 0.0 | 0.00 | 0.05 | 0.00 | 90 | 1015.5 |
| 20260508040007 | 9 | 277 | 0.0 | 0.0 | 0.00 | 0.05 | 0.00 | 89 | 1015.5 |
| 20260508035007 | 10 | 277 | 0.0 | 0.0 | 0.00 | 0.05 | 0.05 | 89 | 1015.5 |
| 20260508033007 | 10 | 277 | 0.0 | 0.0 | 0.00 | 0.05 | 0.05 | 88 | 1015.4 |
| 20260508032007 | 10 | 277 | 0.0 | 0.0 | 0.00 | 0.08 | 0.05 | 86 | 1015.5 |
| 20260508031007 | 10 | 277 | 0.0 | 0.0 | 0.00 | 0.08 | 0.05 | 86 | 1015.2 |
| 20260508030007 | 10 | 277 | 0.0 | 0.0 | 0.00 | 0.08 | 0.05 | 85 | 1015.3 |
| 20260508025007 | 10 | 277 | 0.0 | 0.0 | 0.00 | 0.08 | 0.05 | 84 | 1015.4 |
| 20260508024007 | 11 | 277 | 0.0 | 0.0 | 0.00 | 0.10 | 0.05 | 84 | 1015.3 |
| 20260508023007 | 11 | 277 | 0.0 | 0.0 | 0.00 | 0.10 | 0.05 | 83 | 1015.3 |
| 20260508021007 | 11 | 277 | 0.0 | 0.0 | 0.00 | 0.10 | 0.05 | 84 | 1014.9 |
| 20260508020006 | 11 | 277 | 0.0 | 0.0 | 0.00 | 0.10 | 0.05 | 83 | 1014.7 |
| 20260508015006 | 12 | 277 | 0.0 | 0.0 | 0.00 | 0.10 | 0.05 | 83 | 1014.6 |
| 20260508014007 | 12 | 277 | 0.0 | 0.0 | 0.00 | 0.10 | 0.05 | 82 | 1014.3 |
| 20260508013006 | 12 | 277 | 0.0 | 0.0 | 0.00 | 0.10 | 0.05 | 81 | 1014.3 |
| 20260508012006 | 12 | 277 | 0.0 | 0.0 | 0.00 | 0.10 | 0.05 | 77 | 1014.1 |
| 20260508011006 | 12 | 277 | 0.0 | 0.0 | 0.00 | 0.10 | 0.05 | 77 | 1013.9 |
| 20260508005006 | 13 | 277 | 0.0 | 0.0 | 0.00 | 0.10 | 0.05 | 77 | 1013.6 |
| 20260508004006 | 13 | 277 | 0.0 | 0.0 | 0.00 | 0.13 | 0.05 | 76 | 1013.5 |
| 20260508003007 | 13 | 277 | 0.0 | 0.0 | 0.00 | 0.13 | 0.05 | 75 | 1013.5 |
| 20260508002007 | 13 | 277 | 0.0 | 0.0 | 0.00 | 0.13 | 0.05 | 73 | 1013.3 |
| 20260508001007 | 14 | 277 | 0.0 | 0.0 | 0.00 | 0.13 | 0.05 | 70 | 1013.1 |